Wetbulb
68.42 69.03 69.34 68.98 67.05 69.12 68.87 69.04 68.16 68.72 68.47 69.35 68.82 69.20 67.04 67.55 67.17 68.52 69.87 74.06 74.31 74.48 74.31 74.29 74.32 74.51 74.72 75.23 75.88 76.25 76.51 77.09 78.16 78.42 77.91 77.86 77.58 77.64 77.34 76.88 77.23 77.18 77.15
69.00 69.71 68.63 68.02 68.51 68.83 67.68 67.81 68.92 68.15 68.94 67.36 66.66 66.61 66.25 66.00 66.41 67.87 70.11 70.71 75.47 74.90 75.08 74.98 75.05 75.33 75.44 75.71 76.49 77.08 77.78 78.26 78.57 78.60 77.57 77.26 77.26 77.41 76.93 77.03 77.36 77.72 77.64
69.52 68.48 68.10 68.51 69.01 69.14 69.59 70.76 70.66 69.75 68.54 67.64 66.59 65.77 64.94 65.54 65.82 66.19 67.93 68.44 70.06 74.91 75.22 75.12 76.32 76.87 76.08 76.04 76.78 78.01 78.48 78.47 78.52 78.34 77.46 76.98 77.36 77.44 77.44 77.21 76.84 76.43 76.16
69.84 69.38 68.69 68.41 70.29 70.35 69.37 69.16 68.69 68.27 67.75 67.43 66.46 65.70 65.97 65.64 65.21 65.14 65.50 66.69 67.25 69.06 71.30 75.50 76.33 76.81 76.10 76.56 78.19 78.61 78.15 78.67 78.37 77.44 77.26 76.91 77.10 76.80 76.61 76.26 75.85 76.23 76.05
71.74 71.07 69.31 70.06 69.44 69.17 69.89 70.32 69.05 67.66 66.85 66.62 66.65 66.70 66.65 66.26 65.49 66.74 65.52 65.64 65.47 67.48 67.39 69.91 73.75 75.49 75.87 77.13 78.68 78.74 78.84 78.66 77.93 77.03 77.31 76.47 76.09 75.95 75.96 75.85 75.60 75.55 75.94
72.12 69.10 66.83 65.97 67.82 68.00 69.08 69.40 67.68 69.02 66.21 66.13 67.84 68.16 66.69 66.53 66.64 67.08 67.20 67.53 67.09 67.44 67.96 68.63 69.02 70.28 73.98 74.84 76.67 78.12 78.26 78.48 77.81 77.14 76.49 75.31 75.22 75.40 75.53 75.35 75.20 75.14 75.41
71.72 68.57 66.46 64.20 67.51 69.11 69.85 70.94 69.30 68.39 66.56 67.34 66.68 66.79 65.81 66.76 66.30 67.97 68.50 68.61 68.28 69.44 69.53 70.22 70.08 70.74 71.56 74.10 75.57 76.47 78.23 79.02 77.87 77.49 76.03 75.32 75.18 75.00 74.95 74.70 74.69 74.96 74.95
72.21 69.98 68.08 63.75 68.37 68.12 69.05 70.78 70.22 68.34 67.55 66.99 67.32 64.58 62.14 63.85 65.66 66.10 67.57 68.61 68.10 69.18 69.28 70.67 70.91 70.93 71.10 72.33 73.26 76.86 77.32 77.73 77.36 77.59 76.57 75.99 75.43 75.13 74.93 74.47 74.46 74.75 74.53
72.24 70.57 67.30 66.31 67.77 65.91 68.74 69.85 70.75 69.48 67.93 67.77 67.05 66.67 62.27 60.91 64.43 65.30 65.51 66.97 68.29 68.04 68.42 69.25 70.15 71.15 72.65 72.68 74.10 73.57 74.58 74.70 75.87 76.70 76.71 76.49 75.69 75.45 75.40 74.90 74.70 74.67 74.38
71.96 71.25 69.20 67.94 67.53 63.77 68.99 70.75 70.77 68.99 67.21 66.45 68.47 66.48 66.32 64.79 62.15 62.15 65.60 66.70 65.62 67.88 67.16 68.93 70.08 70.20 72.43 72.14 73.63 74.10 73.48 74.15 74.85 76.05 76.37 76.34 76.51 75.91 76.15 75.60 75.13 75.08 74.44
71.21 71.86 70.93 69.79 63.71 67.59 69.54 70.89 69.31 65.24 66.61 66.74 66.92 66.30 65.85 65.69 64.41 63.09 60.79 63.69 64.30 64.72 68.88 68.42 69.26 70.06 70.49 70.38 71.80 72.27 74.53 74.51 74.01 74.73 74.95 75.17 75.79 76.41 76.66 76.79 75.85 75.75 74.95
70.75 71.23 71.55 69.59 67.35 69.31 70.21 71.30 70.40 65.16 64.09 66.43 68.13 66.12 66.05 65.58 63.20 62.60 60.44 59.97 59.56 63.05 67.52 67.76 67.71 67.82 68.18 70.00 72.63 74.25 74.30 73.80 73.03 72.76 72.69 73.22 74.18 74.58 75.01 75.56 75.54 75.56 74.02
69.39 70.44 71.17 70.51 69.77 70.51 70.64 71.48 70.86 69.72 65.90 67.58 69.04 67.48 65.67 65.21 65.45 63.57 62.73 60.97 59.68 62.70 65.70 65.80 65.65 66.37 68.15 68.70 70.30 73.56 74.20 72.19 71.64 70.52 69.95 71.02 71.99 72.68 73.48 74.18 74.05 73.80 73.03
69.59 70.55 71.63 70.96 70.62 70.92 71.19 71.10 70.79 70.77 70.60 70.50 70.27 70.08 67.51 65.19 65.63 66.03 64.91 62.85 63.20 62.87 63.97 64.41 66.20 68.67 69.42 70.59 71.95 73.93 71.43 70.73 70.04 68.79 69.02 69.44 69.89 70.89 71.82 72.24 72.16 72.09 71.22
70.88 70.87 71.97 71.55 71.18 71.93 71.16 70.72 70.34 69.75 69.38 70.30 70.08 69.61 70.00 69.41 66.46 66.56 65.85 64.71 64.90 61.80 62.37 65.03 65.65 67.96 69.46 70.32 72.57 72.29 72.85 71.37 70.08 69.43 68.50 68.70 68.97 69.89 70.10 70.31 70.35 70.29 70.20
71.05 71.87 71.30 70.86 71.23 70.94 71.38 70.75 70.31 70.10 69.62 70.48 69.98 68.96 69.64 69.93 68.74 69.09 67.93 67.68 66.14 64.56 60.57 64.04 66.70 67.39 69.22 71.30 73.28 72.18 72.90 71.94 70.56 69.09 68.58 68.02 68.28 68.87 68.32 67.87 68.52 69.20 69.22
69.58 69.72 69.62 69.19 70.41 70.88 71.26 71.28 70.58 70.06 69.33 69.33 69.55 69.51 69.13 68.54 67.99 68.91 69.44 69.17 68.20 66.29 63.90 65.97 66.94 69.09 68.99 70.47 72.21 72.01 72.81 72.24 72.24 69.48 68.67 67.94 67.51 67.43 66.62 66.74 67.05 67.99 68.05
68.88 68.02 66.86 67.19 70.37 70.85 70.99 70.83 70.69 71.32 69.72 69.41 69.53 69.86 69.73 70.84 69.18 69.21 68.45 68.38 68.27 68.09 66.56 64.63 66.83 68.30 68.12 71.05 71.52 71.23 72.02 72.91 71.58 71.01 67.95 67.78 67.16 66.56 65.27 65.19 64.60 64.88 64.68
69.26 68.74 67.66 68.20 70.68 71.20 71.32 71.52 71.42 71.45 71.25 70.63 70.36 69.85 69.54 69.66 69.44 69.50 68.42 67.66 68.47 68.90 67.93 66.83 65.98 67.68 68.24 70.31 69.88 70.06 70.20 70.20 72.44 70.57 68.76 67.88 67.27 66.52 64.76 62.58 61.59 61.25 61.23
68.24 67.38 68.44 70.48 71.53 71.70 71.44 71.44 71.57 70.81 70.87 70.56 70.35 70.24 70.23 70.30 69.77 69.21 69.29 68.76 69.01 67.98 67.80 66.33 66.08 66.53 67.52 69.05 68.86 68.29 67.89 69.15 69.05 64.98 69.56 67.58 66.96 67.66 65.05 62.22 62.37 60.64 58.24
70.38 70.35 70.47 69.51 68.83 68.42 67.01 67.95 69.35 70.88 69.73 69.98 68.45 67.68 66.76 67.08 66.61 67.01 69.39 68.29 67.84 67.01 66.92 66.67 66.35 66.37 66.37 65.63 65.29 67.68 66.17 67.25 68.02 61.27 64.40 65.54 65.88 66.77 67.34 61.35 61.69 61.42 58.92
69.26 68.61 67.75 66.27 65.57 65.07 61.36 62.46 64.52 68.86 69.46 68.22 66.27 64.76 64.85 65.10 65.50 65.58 64.98 65.45 67.05 67.19 65.93 66.26 64.93 62.77 63.00 64.38 64.85 64.19 64.90 64.70 65.29 61.18 60.66 62.81 63.84 63.04 65.14 59.55 60.01 59.42 58.29
67.07 64.51 62.92 62.32 61.51 59.99 58.71 58.42 62.29 67.39 68.36 66.63 64.53 61.53 60.72 62.61 64.23 65.98 62.79 61.11 61.05 61.52 63.54 63.53 61.03 61.00 61.32 62.89 62.80 63.00 63.23 62.74 59.96 56.78 58.12 57.51 59.63 59.84 65.04 59.51 58.44 58.38 58.02
63.79 61.47 60.76 61.74 60.93 59.85 59.57 58.66 63.26 66.78 65.40 63.54 60.61 58.07 58.83 59.96 60.81 60.35 58.37 57.16 57.34 57.96 58.60 61.11 60.08 58.63 58.82 60.58 62.07 62.19 62.15 60.35 62.32 55.77 53.02 55.82 56.96 54.77 62.44 59.73 57.98 57.57 56.88
59.83 57.46 56.09 56.06 58.24 59.60 57.90 61.30 63.17 61.48 59.01 57.52 55.98 54.50 55.31 56.26 58.37 57.22 55.41 56.05 56.82 58.29 58.40 58.39 57.79 57.01 56.77 57.10 56.86 54.87 53.79 54.26 53.96 53.07 50.35 52.64 49.19 50.33 56.89 55.22 53.74 56.46 55.30
53.78 53.83 53.12 54.68 54.65 56.40 57.00 59.12 59.47 57.36 54.41 54.06 53.99 54.36 55.94 54.79 55.40 55.84 55.67 56.06 55.13 54.82 54.31 53.45 53.77 54.26 53.82 53.73 55.29 51.94 51.95 50.98 50.35 45.26 48.35 49.33 45.98 47.80 46.19 52.49 51.80 51.65 51.82
MSLP
1019.54 1019.63 1019.96 1019.96 1019.86 1019.72 1019.77 1019.63 1019.48 1019.33 1019.41 1019.23 1019.10 1019.31 1019.68 1019.93 1020.32 1020.61 1020.67 1020.58 1020.64 1020.52 1020.40 1020.23 1020.21 1020.20 1020.10 1019.95 1019.71 1019.50 1019.28 1019.04 1018.78 1018.57 1018.33 1017.98 1017.77 1017.23 1016.99 1016.61 1016.20 1015.97 1015.79
1019.63 1019.64 1019.93 1019.95 1019.97 1019.92 1019.79 1019.57 1019.48 1019.39 1019.29 1019.09 1019.13 1019.26 1019.54 1019.87 1020.21 1020.45 1020.58 1020.63 1020.39 1020.33 1020.17 1020.06 1020.05 1020.03 1019.95 1019.76 1019.48 1019.23 1018.93 1018.79 1018.57 1018.36 1017.91 1017.84 1017.39 1017.00 1016.65 1016.41 1016.01 1015.72 1015.48
1019.64 1019.82 1019.99 1019.91 1019.85 1019.89 1019.63 1019.45 1019.23 1019.17 1019.37 1019.31 1019.53 1019.42 1019.73 1019.89 1020.11 1020.22 1020.31 1020.37 1020.30 1020.09 1020.06 1019.92 1019.82 1019.65 1019.64 1019.50 1019.33 1019.12 1018.84 1018.55 1018.25 1018.00 1017.83 1017.57 1017.13 1016.77 1016.56 1016.31 1015.78 1015.51 1015.16
1019.75 1019.88 1019.99 1019.85 1019.69 1019.78 1019.72 1019.53 1019.48 1019.38 1019.48 1019.66 1019.78 1019.73 1019.80 1020.01 1020.07 1020.10 1020.16 1020.15 1020.10 1020.05 1019.85 1019.69 1019.59 1019.45 1019.44 1019.33 1019.18 1018.98 1018.84 1018.38 1018.20 1017.98 1017.74 1017.47 1017.10 1016.75 1016.48 1016.18 1015.80 1015.43 1015.02
1019.71 1019.80 1020.13 1019.97 1019.97 1019.99 1019.71 1019.63 1019.73 1019.63 1019.74 1019.80 1019.81 1019.87 1020.00 1020.07 1020.19 1019.99 1019.91 1019.93 1019.90 1019.85 1019.89 1019.89 1019.67 1019.49 1019.37 1019.17 1019.03 1018.66 1018.43 1018.19 1018.07 1017.91 1017.71 1017.41 1016.96 1016.66 1016.40 1016.11 1015.73 1015.37 1014.96
1019.65 1019.79 1020.13 1020.27 1020.32 1020.37 1020.15 1019.91 1020.08 1020.04 1019.94 1019.97 1019.95 1019.97 1020.07 1020.14 1020.12 1020.12 1019.95 1019.74 1019.86 1019.93 1019.95 1019.75 1019.55 1019.40 1018.99 1019.26 1018.67 1018.47 1018.02 1017.88 1017.91 1017.77 1017.69 1017.40 1016.93 1016.65 1016.37 1016.07 1015.63 1015.21 1014.81
1019.35 1019.67 1019.98 1020.32 1020.49 1020.59 1020.34 1020.15 1020.16 1020.45 1020.51 1020.25 1020.55 1020.60 1020.27 1020.16 1020.41 1020.33 1020.25 1020.10 1019.77 1019.55 1019.46 1019.25 1019.16 1018.93 1018.59 1018.40 1018.28 1018.12 1017.71 1017.81 1017.87 1017.72 1017.51 1017.32 1016.89 1016.54 1016.35 1016.13 1015.60 1015.16 1014.78
1019.45 1019.80 1020.12 1020.62 1020.63 1020.41 1020.31 1020.25 1020.33 1020.64 1020.74 1020.63 1020.94 1021.09 1021.26 1021.08 1020.71 1020.60 1020.33 1020.09 1019.96 1019.49 1019.21 1018.95 1018.84 1018.30 1018.24 1018.33 1017.97 1017.83 1017.89 1017.87 1017.68 1017.62 1017.34 1017.11 1016.75 1016.38 1016.28 1015.98 1015.59 1015.13 1014.75
1019.50 1019.77 1020.34 1020.62 1020.66 1020.58 1020.36 1020.36 1020.42 1020.52 1020.87 1021.07 1020.80 1020.95 1021.84 1021.81 1021.61 1021.18 1020.92 1020.64 1020.36 1019.82 1019.19 1018.98 1018.80 1018.36 1018.06 1018.15 1017.96 1017.76 1017.94 1017.91 1017.56 1017.42 1017.11 1016.80 1016.51 1016.17 1015.98 1015.77 1015.43 1015.02 1014.73
1019.81 1020.16 1020.29 1020.45 1020.58 1020.61 1020.57 1020.47 1020.36 1020.51 1020.86 1021.11 1021.20 1021.17 1021.33 1021.56 1021.91 1022.09 1021.50 1020.90 1020.53 1020.19 1019.77 1019.27 1018.90 1018.52 1018.12 1017.89 1018.03 1018.10 1018.05 1017.74 1017.37 1017.23 1016.87 1016.55 1016.28 1015.99 1015.82 1015.68 1015.39 1015.03 1014.74
1019.90 1020.01 1020.18 1020.30 1020.42 1020.55 1020.37 1020.45 1020.47 1020.66 1020.91 1021.08 1021.19 1021.54 1021.57 1021.59 1021.78 1022.03 1022.00 1021.35 1020.95 1020.44 1020.06 1019.68 1019.34 1018.95 1018.33 1018.19 1018.41 1018.31 1018.01 1017.68 1017.25 1017.21 1016.82 1016.42 1015.99 1015.89 1015.74 1015.57 1015.30 1015.07 1014.84
1020.01 1019.91 1020.14 1020.35 1020.49 1020.50 1020.44 1020.43 1020.45 1020.79 1021.03 1021.05 1021.19 1021.34 1021.44 1021.57 1021.88 1022.03 1022.18 1022.02 1021.84 1020.84 1020.09 1019.59 1019.33 1019.05 1018.63 1018.54 1018.41 1018.15 1017.76 1017.45 1017.29 1017.05 1016.80 1016.19 1015.80 1015.65 1015.53 1015.31 1015.05 1014.87 1014.77
1020.07 1019.91 1020.08 1020.57 1020.49 1020.29 1020.26 1020.42 1020.63 1020.57 1020.85 1021.06 1021.09 1021.27 1021.35 1021.48 1021.79 1021.80 1021.97 1022.23 1022.23 1021.22 1020.56 1019.58 1019.18 1019.22 1018.97 1018.53 1018.27 1018.01 1017.62 1017.28 1017.25 1017.13 1016.66 1016.04 1015.80 1015.41 1015.13 1014.93 1014.77 1014.67 1014.67
1019.67 1019.46 1019.71 1020.12 1020.19 1020.13 1020.17 1020.42 1020.63 1020.40 1020.52 1020.82 1020.85 1020.90 1020.99 1021.13 1021.51 1021.59 1021.79 1022.09 1022.13 1021.78 1021.10 1020.27 1019.65 1019.29 1019.12 1018.67 1018.43 1017.93 1017.62 1017.44 1017.53 1016.98 1016.57 1016.26 1016.00 1015.53 1015.08 1014.80 1014.61 1014.58 1014.63
1019.31 1019.24 1019.32 1019.62 1019.89 1020.11 1020.24 1020.34 1020.56 1020.47 1020.61 1020.71 1020.78 1020.84 1020.87 1020.80 1020.99 1021.15 1021.38 1021.65 1021.81 1022.00 1021.60 1020.53 1020.28 1019.22 1019.00 1018.72 1018.43 1018.22 1017.97 1017.88 1017.64 1017.08 1016.88 1016.68 1016.28 1015.71 1014.99 1014.49 1014.52 1014.44 1014.57
1019.15 1019.26 1019.37 1019.56 1019.66 1019.78 1020.07 1020.31 1020.53 1020.44 1020.49 1020.66 1020.78 1020.82 1020.87 1020.84 1020.77 1020.85 1020.96 1021.18 1021.40 1021.52 1021.81 1020.92 1020.55 1019.89 1019.31 1018.94 1018.59 1018.45 1018.13 1017.85 1017.59 1017.37 1017.16 1016.99 1016.66 1015.93 1015.20 1014.56 1014.50 1014.65 1014.70
1018.97 1019.05 1019.11 1019.30 1019.47 1019.62 1019.67 1020.11 1020.31 1020.49 1020.57 1020.65 1020.74 1020.76 1020.78 1020.73 1020.68 1020.74 1020.86 1020.97 1021.08 1021.18 1021.44 1020.91 1020.39 1019.78 1019.56 1019.27 1018.87 1018.73 1018.33 1018.09 1017.79 1017.55 1017.48 1017.19 1016.83 1016.34 1015.68 1015.13 1015.01 1014.96 1015.15
1018.65 1018.91 1019.03 1019.24 1019.30 1019.45 1019.58 1019.83 1020.03 1020.15 1020.33 1020.51 1020.51 1020.55 1020.52 1020.51 1020.56 1020.71 1020.84 1020.85 1020.90 1020.91 1020.95 1021.00 1020.67 1020.23 1019.85 1019.58 1019.26 1019.12 1018.74 1018.41 1018.20 1017.90 1017.87 1017.57 1017.23 1016.92 1016.37 1015.97 1015.88 1015.75 1015.58
1018.68 1018.73 1019.02 1019.19 1019.25 1019.31 1019.47 1019.60 1019.83 1019.91 1020.04 1020.11 1020.27 1020.41 1020.41 1020.46 1020.49 1020.57 1020.66 1020.74 1020.79 1020.80 1020.87 1020.93 1020.80 1020.43 1020.19 1020.08 1019.77 1019.42 1019.13 1018.87 1018.54 1018.27 1018.11 1018.01 1017.77 1017.61 1017.10 1016.79 1016.60 1016.47 1016.08
1018.72 1018.76 1018.87 1019.05 1019.24 1019.26 1019.43 1019.61 1019.71 1019.77 1019.95 1020.10 1020.17 1020.16 1020.18 1020.21 1020.23 1020.29 1020.34 1020.54 1020.57 1020.51 1020.52 1020.69 1020.74 1020.73 1020.66 1020.35 1020.05 1019.97 1019.75 1019.51 1019.43 1018.77 1018.63 1018.41 1018.08 1017.86 1017.74 1017.50 1017.38 1017.17 1016.88
1018.45 1018.78 1018.91 1019.07 1019.27 1019.41 1019.71 1019.80 1019.78 1019.81 1019.89 1020.15 1020.32 1020.41 1020.30 1020.19 1020.24 1020.39 1020.26 1020.52 1020.60 1020.69 1020.83 1020.90 1020.92 1020.95 1020.93 1020.78 1020.79 1020.59 1020.34 1020.01 1019.95 1019.81 1019.59 1018.98 1018.63 1018.47 1018.41 1018.34 1018.24 1018.02 1017.63
1018.23 1018.56 1018.94 1019.21 1019.49 1019.59 1019.49 1019.61 1020.04 1019.83 1020.02 1020.05 1020.42 1020.54 1020.42 1020.43 1020.31 1020.29 1020.46 1020.45 1020.65 1020.73 1020.91 1021.10 1021.40 1021.67 1021.58 1021.49 1021.29 1021.01 1020.72 1020.60 1020.78 1020.41 1020.45 1019.75 1019.47 1019.39 1019.26 1019.26 1018.95 1018.67 1018.66
1018.64 1018.89 1018.97 1019.24 1019.57 1019.85 1019.87 1019.63 1019.78 1020.05 1020.01 1020.34 1020.59 1020.75 1020.81 1020.97 1020.65 1020.80 1020.73 1020.74 1020.84 1020.87 1021.03 1021.15 1021.55 1021.79 1021.82 1021.77 1021.51 1021.26 1021.12 1021.19 1021.81 1021.83 1020.97 1020.61 1020.18 1020.16 1019.83 1020.00 1019.70 1019.41 1019.29
1018.63 1019.05 1019.29 1019.57 1019.65 1019.63 1019.57 1019.55 1019.77 1020.06 1020.35 1020.64 1020.86 1020.92 1021.09 1021.26 1021.11 1021.09 1021.23 1021.26 1021.46 1021.37 1021.37 1021.24 1021.67 1022.09 1022.07 1021.76 1021.55 1021.60 1021.59 1021.56 1021.76 1022.03 1021.96 1021.83 1021.35 1020.87 1020.33 1020.36 1020.43 1020.25 1020.29
1019.19 1019.57 1019.77 1019.94 1020.08 1020.11 1019.39 1019.39 1019.87 1020.46 1021.06 1021.39 1021.36 1021.42 1021.55 1021.61 1021.46 1021.21 1021.39 1021.83 1021.98 1022.04 1022.06 1022.15 1022.33 1022.39 1022.21 1022.10 1022.00 1021.65 1022.28 1022.45 1023.02 1023.12 1022.97 1022.99 1022.65 1021.84 1021.06 1021.01 1020.80 1020.79 1020.76
1019.93 1020.26 1020.22 1020.25 1020.44 1020.05 1019.46 1019.49 1019.91 1020.73 1021.47 1021.95 1022.20 1022.37 1022.20 1022.07 1021.75 1021.64 1021.84 1022.00 1022.22 1022.65 1022.55 1022.72 1023.03 1022.98 1022.87 1023.00 1022.93 1023.02 1023.26 1023.43 1023.70 1024.12 1024.07 1023.89 1023.69 1023.35 1022.37 1021.47 1021.48 1021.47 1021.45
Wind_Speed
1 1 2 2 2 1 1 3 3 3 3 4 4 5 4 5 4 2 2 9 8 8 8 8 9 10 10 9 10 11 12 13 13 14 14 13 13 14 14 14 14 14 15
2 2 1 1 1 2 3 2 3 3 3 3 3 3 5 5 5 5 3 4 10 10 10 11 11 11 11 11 11 12 13 13 14 14 13 12 12 12 12 12 12 11 12
2 2 1 2 2 2 4 3 2 1 2 3 3 2 3 4 4 5 4 4 5 11 12 12 12 12 12 12 12 12 13 13 13 12 11 11 10 11 10 10 12 11 11
1 1 1 1 3 4 3 3 3 2 2 3 2 1 3 4 5 5 4 4 4 4 7 12 13 12 13 13 12 13 13 12 12 11 11 11 10 10 9 9 11 11 11
3 4 2 2 4 3 4 2 2 1 1 1 2 2 2 3 4 3 6 5 5 5 3 7 10 12 13 15 14 13 13 13 11 8 8 9 10 10 10 10 10 9 10
6 5 4 3 4 3 3 3 3 4 2 1 2 2 2 1 2 3 4 3 4 4 4 5 4 6 12 10 11 14 13 11 10 9 7 7 9 10 10 11 11 11 11
5 5 3 3 3 0 2 3 1 4 4 3 3 3 3 2 3 4 3 2 4 4 3 4 2 4 5 8 6 10 12 10 10 10 9 8 8 10 10 10 12 12 11
4 4 3 2 1 2 4 4 3 1 2 4 3 2 3 4 3 6 1 2 2 2 3 3 3 4 4 3 5 9 9 11 10 11 11 10 8 9 10 9 10 11 11
4 4 5 4 2 1 3 2 2 3 2 3 5 4 3 2 2 3 5 3 3 2 2 3 4 5 4 1 2 5 9 11 12 12 13 11 9 8 9 9 9 10 9
4 4 5 4 4 2 2 1 2 2 2 3 2 4 4 3 2 1 3 3 4 4 5 4 5 5 5 2 5 7 9 12 11 12 13 14 11 9 10 9 10 10 8
3 5 4 4 4 2 1 2 3 4 1 3 2 1 2 2 2 2 2 3 3 4 2 3 3 4 4 4 4 7 10 12 12 14 15 15 15 10 10 10 8 8 9
2 3 3 3 4 3 3 2 3 4 2 3 2 2 2 2 1 2 1 2 2 4 3 2 3 4 5 4 7 12 13 11 12 15 15 14 12 10 8 9 8 7 7
3 5 4 5 3 3 4 3 3 3 4 2 2 2 1 1 2 2 2 0 2 3 4 2 2 4 5 5 6 11 13 9 11 13 10 13 13 10 8 7 7 5 5
4 4 5 5 4 3 2 3 2 2 2 3 5 3 3 2 2 2 2 3 2 2 3 4 2 3 4 4 6 12 6 12 11 8 13 14 13 12 10 9 7 3 4
3 5 5 6 6 5 5 2 2 2 2 2 3 2 3 3 3 3 2 2 3 1 3 3 3 3 4 4 8 6 6 9 9 14 13 15 16 15 14 12 5 0 3
4 5 6 6 6 5 5 5 2 2 2 2 2 2 1 1 1 3 3 2 2 3 1 0 2 3 4 4 6 6 6 7 10 12 12 12 14 16 18 12 7 5 4
4 6 6 6 6 5 4 5 5 4 3 3 2 3 3 3 2 2 2 2 2 3 3 3 2 2 2 4 5 4 5 6 6 10 12 11 13 16 16 16 12 8 8
5 6 5 5 5 5 5 5 5 5 4 4 5 4 4 2 3 3 2 3 2 1 2 2 2 2 1 4 4 6 6 6 5 11 13 14 13 15 15 18 14 12 10
6 5 6 6 6 6 6 6 6 6 5 4 3 2 3 2 2 3 3 2 2 1 0 1 2 1 1 2 3 3 5 5 5 11 11 12 14 16 19 22 21 18 16
5 5 6 5 5 5 5 4 5 5 4 2 2 2 1 1 3 4 3 2 3 2 2 2 1 0 0 2 2 2 4 3 4 8 7 8 11 13 17 17 21 21 18
6 5 3 3 2 3 2 2 4 5 6 5 4 4 4 4 5 2 3 2 1 1 2 2 2 2 2 3 3 3 2 2 2 8 4 7 6 7 9 16 19 24 26
4 5 4 4 4 2 3 3 5 3 4 5 5 3 4 4 5 7 9 8 2 3 2 2 1 2 3 2 2 2 2 3 3 7 4 4 6 5 6 10 19 24 25
2 3 4 5 5 2 3 1 2 3 3 4 5 4 3 2 2 5 7 9 10 11 8 2 2 2 1 3 3 3 4 3 3 5 3 4 7 5 5 10 21 22 20
4 5 4 3 3 2 4 2 7 3 4 4 5 5 5 3 3 5 3 6 6 6 5 6 8 6 5 4 4 2 3 1 3 4 9 4 4 3 3 3 20 21 21
4 4 4 4 3 2 6 10 9 8 7 5 5 5 4 4 4 6 7 7 8 10 11 14 14 13 19 19 13 3 6 5 4 4 11 3 4 4 3 4 8 21 18
6 4 4 5 4 2 6 12 12 7 7 4 5 4 7 3 4 5 6 6 9 4 5 7 8 11 13 13 17 10 4 5 3 4 6 4 6 5 5 2 5 9 8
Wind_Direction
178 96 55 50 353 339 288 319 316 308 309 294 290 192 172 166 171 203 224 239 236 245 253 259 265 272 280 289 295 298 298 297 292 290 293 296 294 289 287 286 281 278 272
268 198 149 152 1 313 300 315 294 295 320 335 12 170 172 161 179 198 214 258 245 247 256 263 269 273 280 286 288 291 292 295 297 301 305 305 301 296 301 312 306 302 295
307 106 360 295 257 264 306 310 262 258 23 39 22 115 132 172 194 198 203 225 255 254 255 263 269 274 279 283 289 293 294 295 296 304 310 311 308 312 318 320 315 318 311
219 155 184 320 3 25 354 342 10 356 79 123 131 162 178 203 211 211 217 227 233 252 265 264 269 275 283 289 290 292 297 295 302 310 315 315 312 316 321 322 317 317 317
157 188 148 63 38 29 16 358 3 14 124 152 193 181 192 216 228 220 226 234 244 248 260 289 297 296 297 297 302 303 302 304 315 333 321 318 317 323 324 323 325 327 322
146 109 105 103 63 1 8 21 35 14 74 348 327 312 284 195 255 262 269 283 308 306 305 289 295 298 293 317 299 284 290 299 322 331 333 319 322 328 324 330 338 339 339
110 104 86 82 114 126 36 31 38 40 22 14 55 1 323 299 314 283 348 10 330 328 314 297 285 268 283 294 317 287 285 307 329 323 326 328 337 332 329 328 330 337 340
134 121 116 145 239 99 49 28 42 97 51 17 126 109 16 352 360 360 6 117 110 314 34 324 291 271 270 281 296 310 317 317 322 315 315 321 337 334 334 327 326 335 340
154 115 130 164 93 30 76 34 35 73 125 23 39 137 76 227 322 335 6 10 341 325 329 343 360 351 358 38 283 340 345 320 320 314 306 308 322 325 325 331 330 337 347
187 164 155 170 134 84 51 57 70 73 97 135 23 44 63 135 148 319 292 275 322 306 333 353 3 7 20 104 297 339 328 321 319 311 303 306 306 315 320 332 338 342 354
238 180 167 159 122 152 159 25 60 51 46 123 130 118 71 59 97 116 254 305 314 292 299 316 337 323 318 15 338 314 327 307 342 327 311 308 315 331 329 326 338 349 352
264 243 157 207 176 175 165 150 125 114 127 76 102 128 167 163 217 137 72 309 253 297 298 356 318 328 322 4 321 300 302 306 337 321 316 316 335 354 342 314 326 358 8
212 239 187 196 211 189 178 164 163 157 167 142 150 99 129 175 121 139 131 43 298 308 314 312 327 331 310 320 298 295 296 338 330 322 315 10 1 356 322 299 305 343 33
205 201 200 198 203 208 243 177 176 191 227 156 155 177 177 194 167 178 151 138 337 321 325 281 340 324 309 304 296 329 341 348 326 12 16 7 358 350 339 316 308 333 53
224 222 207 202 201 194 206 221 203 227 208 187 150 186 189 194 176 182 169 161 154 348 301 322 337 297 356 354 1 5 13 353 8 23 12 7 354 346 338 328 348 106 88
225 225 204 197 202 210 192 184 224 238 236 234 201 188 211 240 225 162 172 182 209 146 266 194 287 303 351 349 7 0 1 9 2 15 10 4 353 352 346 352 11 99 82
218 212 200 199 201 210 215 193 198 224 231 233 225 217 230 200 216 187 175 161 154 164 174 280 245 288 332 345 356 359 358 1 352 5 4 360 9 5 2 33 41 73 35
200 206 205 218 220 208 205 209 211 209 215 225 226 226 233 212 215 188 193 182 196 207 152 229 298 317 325 353 359 4 352 2 349 5 4 7 15 17 24 34 34 36 30
222 208 206 216 220 219 197 201 212 219 222 233 252 241 266 259 218 193 198 171 136 153 156 149 279 277 329 354 329 343 355 352 11 7 9 8 12 23 35 43 42 33 27
222 236 214 218 214 208 203 204 207 215 196 171 136 122 70 220 207 182 167 154 195 182 166 132 119 7 218 293 6 357 348 4 16 8 10 10 22 31 42 35 35 31 28
199 213 192 159 151 128 54 317 227 211 165 144 123 112 94 91 68 19 157 196 188 41 30 39 55 28 4 8 9 326 306 326 50 20 339 17 7 31 39 39 37 35 36
195 179 160 160 151 140 154 231 287 220 176 145 140 101 76 337 47 59 78 83 142 143 127 120 56 19 353 358 324 313 320 21 12 10 333 3 9 3 55 41 35 41 42
135 156 157 156 160 167 290 279 163 256 149 148 136 119 76 22 43 108 82 68 60 57 57 87 86 51 23 339 302 359 2 48 99 339 12 360 5 2 23 41 35 37 45
139 150 151 166 164 137 276 195 143 151 93 95 122 125 116 84 52 111 95 65 55 50 50 79 84 65 47 13 43 357 341 34 90 47 12 35 343 319 356 45 40 35 37
96 100 85 59 11 304 17 120 103 94 81 63 56 56 82 85 47 104 107 99 82 79 65 71 71 57 51 45 35 39 25 42 23 14 21 347 341 303 336 30 34 30 40
89 59 82 80 62 42 27 124 110 115 98 89 45 34 32 45 70 74 106 117 96 63 76 59 44 45 47 40 40 49 19 67 50 25 352 27 347 349 336 358 45 28 13